Location: Ferchesar
(52.6477°N, 12.4298°E)
Time: 22:01:36
(UTC+01:00)

TIGRISAT - Pass Details

Date: 27 October 2021
Orbit: 603 x 689 km, 97.7° (Epoch: 30 November)

Event Time Altitude Azimuth Distance (km) Brightness Sun altitude
Rises 06:11:09 0° 135° (SE) 3,047 ? -16.7°
Reaches altitude 10° 06:13:35 10° 125° (SE) 2,130 ? -16.3°
Maximum altitude 06:17:40 31° 64° (ENE) 1,185 ? -15.7°
Drops below altitude 10° 06:21:43 10° 3° (N) 2,109 ? -15.1°
Sets 06:24:07 0° 353° (N) 3,013 ? -14.7°
